Location: Charlottesville
(38.0290°N, 78.4770°W)
Time: 10:13:53
(UTC-05:00)

OTV 5 (USA 277) - Pass Details

Date: 14 October 2017
Orbit: 404 x 417 km, 43.0° (Epoch: 07 September)

Event Time Altitude Azimuth Distance (km) Brightness Sun altitude
Rises 19:32:16 0° 271° (W) 2,351 ? -11.6°
Reaches altitude 10° 19:34:28 10° 280° (W) 1,489 ? -12.0°
Maximum altitude 19:37:39 38° 350° (N) 648 ? -12.7°
Enters shadow 19:39:45 18° 52° (NE) 1,097 ? -13.1°
